Starlink 6374

operational
NORAD ID: 57338 Int'l Des: 2023-099 Owner: SPXS Country: US Constellation: starlink
LEOCIRCULAR

Über Starlink 6374

Beschreibung wird geladen...

Live-Position

3D-Globus wird geladen...

Nächste Überflüge

Höhenverlauf

Altitude vs Time

uPlot chart will show altitude changes over time

Zweizeiliger Elementsatz

1 57338U 23099L 25304.77437128 .00001196 00000-0 10355-3 0 9996
2 57338 43.0026 229.5213 0000969 264.9434 95.1298 15.02536755126724
Epoch: 31. Okt. 2025 • Age: 23 hours

Aktueller Status

Höhe 563.2 km
Geschwindigkeit 7.58 km/s
Subsatellitenpunkt -19.96°S, 118.01°E
Startdatum 16. Juli 2023
Alter 2.2 years
Typ internet

Technische Details

Klassifizierung Payload
Masse 305.00 kg
Trockenmasse 290.00 kg
Gesamtmasse 305.00 kg
Länge 0.20 m
Durchmesser 2.80 m
Spannweite 9.00 m
Form Box + pan
Hersteller SPXS
Bus-Typ Starlink
Phasenstatus In Orbit
Besitzer/Staat SPXS/US

Große Konstellationen

Loading constellations...